UAE9820 OMDW-YSSY

Flight info

Callsign UAE9820
Flight time N/A
Altitude 29000
Route ANVIX L223 TARDI N629 GIDAN P570 KITAL L894 BIBGO DCT SUNAN/N0503F310 L894 SAKEG DCT 10S087E 13S090E/N0495F330 17S095E 20S100E 22S104E DCT NONOG DCT ANKEL/N0483F350 DCT LEO DCT 31S128E DCT CDU J149 WHA J21 BORLI DCT CULIN Y59 RIVET
Aircraft B77L/H-SDE1E2E3FGHIJ2J3J4J5M1RWXY/LB1D1

Departure

Time 2026-04-25 12:33
Airport Al Maktoum International Airport (OMDW)

Arrival

Time N/A
Airport Sydney Kingsford Smith International Airport (YSSY)
Time Latitude Longitude Altitude Speed Heading
2026-04-25 11:15 24.89387 55.14776 119 ft 0 kts 119°
2026-04-25 12:17 24.89394 55.14762 119 ft 2 kts 118°
2026-04-25 12:17 24.89400 55.14751 119 ft 0 kts 119°
2026-04-25 12:17 24.89406 55.14739 119 ft 2 kts 111°
2026-04-25 12:18 24.89409 55.14723 119 ft 2 kts 96°
2026-04-25 12:18 24.89410 55.14707 119 ft 2 kts 83°
2026-04-25 12:18 24.89407 55.14691 119 ft 2 kts 70°
2026-04-25 12:18 24.89401 55.14676 119 ft 2 kts 58°
2026-04-25 12:19 24.89385 55.14656 118 ft 2 kts 37°
2026-04-25 12:19 24.89376 55.14649 118 ft 0 kts 30°
2026-04-25 12:22 24.89376 55.14650 118 ft 0 kts 30°
2026-04-25 12:22 24.89377 55.14650 118 ft 0 kts 30°
2026-04-25 12:22 24.89387 55.14656 118 ft 2 kts 31°
2026-04-25 12:23 24.89409 55.14671 119 ft 5 kts 31°
2026-04-25 12:23 24.89449 55.14697 119 ft 8 kts 31°
2026-04-25 12:23 24.89498 55.14730 119 ft 8 kts 31°
2026-04-25 12:23 24.89553 55.14767 118 ft 10 kts 31°
2026-04-25 12:24 24.89619 55.14811 118 ft 11 kts 31°
2026-04-25 12:24 24.89688 55.14856 118 ft 12 kts 31°
2026-04-25 12:24 24.89766 55.14909 117 ft 14 kts 31°
2026-04-25 12:24 24.89840 55.14957 118 ft 10 kts 31°
2026-04-25 12:25 24.89897 55.14996 117 ft 9 kts 36°
2026-04-25 12:25 24.89913 55.15056 117 ft 8 kts 119°
2026-04-25 12:25 24.89881 55.15112 118 ft 9 kts 123°
2026-04-25 12:25 24.89842 55.15181 119 ft 11 kts 121°
2026-04-25 12:26 24.89794 55.15267 119 ft 14 kts 121°
2026-04-25 12:26 24.89735 55.15375 120 ft 17 kts 121°
2026-04-25 12:26 24.89664 55.15503 122 ft 20 kts 121°
2026-04-25 12:26 24.89587 55.15641 124 ft 22 kts 121°
2026-04-25 12:27 24.89504 55.15793 125 ft 24 kts 121°
2026-04-25 12:27 24.89415 55.15953 127 ft 24 kts 121°
2026-04-25 12:27 24.89322 55.16121 128 ft 26 kts 121°
2026-04-25 12:27 24.89225 55.16296 131 ft 26 kts 121°
2026-04-25 12:28 24.89139 55.16452 134 ft 21 kts 121°
2026-04-25 12:28 24.89072 55.16574 139 ft 17 kts 121°
2026-04-25 12:28 24.89012 55.16680 144 ft 16 kts 121°
2026-04-25 12:28 24.88950 55.16792 147 ft 17 kts 121°
2026-04-25 12:29 24.88885 55.16910 152 ft 18 kts 121°
2026-04-25 12:29 24.88821 55.17027 157 ft 18 kts 121°
2026-04-25 12:29 24.88752 55.17152 160 ft 19 kts 121°
2026-04-25 12:29 24.88677 55.17287 164 ft 21 kts 121°
2026-04-25 12:30 24.88595 55.17433 167 ft 23 kts 121°
2026-04-25 12:30 24.88507 55.17595 168 ft 26 kts 121°
2026-04-25 12:30 24.88419 55.17753 170 ft 17 kts 121°
2026-04-25 12:30 24.88389 55.17833 171 ft 9 kts 81°
2026-04-25 12:31 24.88431 55.17880 171 ft 9 kts 30°
2026-04-25 12:31 24.88492 55.17918 171 ft 10 kts 30°
2026-04-25 12:31 24.88559 55.17962 171 ft 11 kts 31°
2026-04-25 12:31 24.88623 55.17978 171 ft 8 kts 322°
2026-04-25 12:32 24.88653 55.17931 171 ft 6 kts 301°
2026-04-25 12:32 24.88687 55.17871 171 ft 16 kts 301°
2026-04-25 12:32 24.88862 55.17559 167 ft 81 kts 302°
2026-04-25 12:32 24.89274 55.16813 141 ft 145 kts 301°
2026-04-25 12:33 24.89911 55.15659 124 ft 203 kts 302°
2026-04-25 12:33 24.90673 55.14282 624 ft 215 kts 302°
2026-04-25 12:33 24.91441 55.12890 1532 ft 213 kts 302°
2026-04-25 12:33 24.92216 55.11492 1916 ft 223 kts 302°
2026-04-25 12:34 24.93041 55.10003 2329 ft 228 kts 302°
2026-04-25 12:34 24.93869 55.08507 2694 ft 238 kts 302°
2026-04-25 12:34 24.94737 55.06837 2734 ft 265 kts 291°
2026-04-25 12:34 24.94942 55.06187 2730 ft 274 kts 283°
2026-04-25 12:35 24.94467 55.02715 3457 ft 292 kts 237°
2026-04-25 12:35 24.93099 55.01165 4401 ft 280 kts 215°
2026-04-25 12:35 24.91361 55.00339 5327 ft 268 kts 191°
2026-04-25 12:35 24.89563 55.00367 6124 ft 256 kts 167°
2026-04-25 12:36 24.87963 55.01134 6727 ft 252 kts 144°
2026-04-25 12:36 24.86743 55.02511 7119 ft 255 kts 122°
2026-04-25 12:36 24.86076 55.04377 7233 ft 272 kts 98°
2026-04-25 12:36 24.86130 55.06502 7288 ft 291 kts 76°
2026-04-25 12:37 24.86651 55.08717 7459 ft 309 kts 75°
2026-04-25 12:37 24.87195 55.11091 7649 ft 326 kts 77°
2026-04-25 12:37 24.87715 55.13573 7889 ft 342 kts 77°
2026-04-25 12:37 24.88242 55.16184 8156 ft 357 kts 78°
2026-04-25 12:38 24.88930 55.18876 8426 ft 372 kts 70°
2026-04-25 12:38 24.89897 55.21550 8763 ft 384 kts 68°
2026-04-25 12:38 24.90881 55.24289 9354 ft 388 kts 72°
2026-04-25 12:38 24.91467 55.27192 10012 ft 388 kts 84°
2026-04-25 12:39 24.91525 55.30144 10619 ft 389 kts 95°
2026-04-25 12:39 24.91049 55.33100 11175 ft 392 kts 107°
2026-04-25 12:39 24.90077 55.35910 11737 ft 395 kts 115°
2026-04-25 12:39 24.88965 55.38637 12324 ft 397 kts 115°
2026-04-25 12:40 24.87816 55.41435 12962 ft 399 kts 115°
2026-04-25 12:40 24.86676 55.44209 13570 ft 402 kts 115°
2026-04-25 12:40 24.85513 55.47037 14026 ft 409 kts 115°
2026-04-25 12:40 24.84336 55.49896 14509 ft 413 kts 115°
2026-04-25 12:41 24.83152 55.52771 15009 ft 416 kts 115°
2026-04-25 12:41 24.81954 55.55679 15567 ft 419 kts 115°
2026-04-25 12:41 24.80752 55.58593 15995 ft 424 kts 115°
2026-04-25 12:41 24.79525 55.61567 16461 ft 428 kts 115°
2026-04-25 12:42 24.78283 55.64574 16943 ft 433 kts 115°
2026-04-25 12:42 24.77865 55.65588 17084 ft 435 kts 115°
2026-04-25 12:42 24.75767 55.70663 17889 ft 440 kts 115°
2026-04-25 12:42 24.74511 55.73698 18346 ft 444 kts 115°
2026-04-25 12:43 24.73225 55.76805 18802 ft 447 kts 115°
2026-04-25 12:43 24.71941 55.79905 19287 ft 450 kts 115°
2026-04-25 12:43 24.69315 55.86237 20137 ft 458 kts 115°
2026-04-25 12:44 24.67994 55.89418 20630 ft 460 kts 116°
2026-04-25 12:44 24.66664 55.92621 21073 ft 464 kts 116°
2026-04-25 12:44 24.63955 55.99133 21853 ft 472 kts 116°
2026-04-25 12:45 24.62594 56.02402 22286 ft 475 kts 116°
2026-04-25 12:45 24.61225 56.05687 22730 ft 478 kts 116°
2026-04-25 12:45 24.58437 56.12368 23514 ft 484 kts 117°
2026-04-25 12:46 24.56776 56.15607 23872 ft 485 kts 126°
2026-04-25 12:46 24.54731 56.18502 24206 ft 487 kts 132°
2026-04-25 12:46 24.52518 56.21345 24616 ft 488 kts 132°
2026-04-25 12:46 24.50319 56.24146 25068 ft 489 kts 132°
2026-04-25 12:47 24.48078 56.26998 25501 ft 491 kts 132°
2026-04-25 12:47 24.45855 56.29826 25844 ft 495 kts 132°
2026-04-25 12:47 24.43608 56.32683 26195 ft 498 kts 132°
2026-04-25 12:47 24.41323 56.35586 26585 ft 500 kts 132°
2026-04-25 12:48 24.39048 56.38475 26959 ft 503 kts 132°
2026-04-25 12:48 24.36771 56.41365 27353 ft 505 kts 132°
2026-04-25 12:48 24.34464 56.44291 27744 ft 507 kts 132°
2026-04-25 12:48 24.32171 56.47198 28108 ft 510 kts 132°
2026-04-25 12:49 24.29834 56.50158 28558 ft 510 kts 132°
2026-04-25 12:49 24.27634 56.53180 28878 ft 512 kts 127°
2026-04-25 12:49 24.23511 56.59510 28887 ft 507 kts 127°
2026-04-25 12:50 24.19418 56.65762 28885 ft 507 kts 127°
2026-04-25 12:50 24.15288 56.72022 28873 ft 508 kts 127°
2026-04-25 12:51 24.11124 56.78302 28868 ft 508 kts 127°
2026-04-25 12:51 24.06988 56.84519 28870 ft 506 kts 127°
2026-04-25 12:52 24.02833 56.90749 28868 ft 508 kts 127°
2026-04-25 12:52 23.98693 56.96941 28861 ft 507 kts 127°
2026-04-25 12:53 23.94525 57.03163 28859 ft 507 kts 127°
2026-04-25 12:53 23.90347 57.09391 28869 ft 508 kts 127°
2026-04-25 12:54 23.86179 57.15600 28880 ft 508 kts 127°